[[[{"header":{"parameterUnit":"kt","parameterCategory":2,"dx":1,"dy":1,"la1":30.253999710083008,"la2":30.299108505249023,"lo1":-89.0895004272461,"lo2":-89.04439544677734,"nx":28,"ny":28,"refTime":"2022-10-25T21:00:00:Z","depth":0,"parameterNumber":1,"parameterNumberName":"U-component_of_WINDS"},"data":[-1.4907,-1.4894,-1.4846,-1.4809,-1.4759,-1.4726,-1.4699,-1.4659,-1.4614,-1.4569,-1.4535,-1.4484,-1.442,-1.4368,-1.4329,-1.4307,-1.4295,-1.4327,-1.4297,-1.4195,-1.4177,-1.4161,-1.4162,-1.4325,-1.4325,-1.4411,-1.4412,-1.4412,-1.4844,-1.4795,-1.476,-1.4693,-1.4664,-1.4604,-1.4546,-1.4526,-1.4497,-1.4441,-1.4403,-1.4359,-1.4318,-1.424,-1.4193,-1.4187,-1.4156,-1.4178,-1.4179,-1.417,-1.4059,-1.406,-1.4204,-1.4204,-1.4204,-1.4204,-1.4204,-1.4204,-1.4715,-1.4709,-1.4639,-1.46,-1.4553,-1.4509,-1.4494,-1.4431,-1.4396,-1.4338,-1.4285,-1.4251,-1.4185,-1.4101,-1.406,-1.4033,-1.4,-1.4008,-1.4011,-1.4015,-1.4028,-1.3919,-1.4022,-1.4021,-1.4021,-1.402,-1.402,0,-1.4607,-1.4566,-1.4528,-1.4476,-1.4444,-1.4399,-1.4348,-1.4337,-1.4232,-1.4207,-1.4167,-1.4135,-1.4073,-1.4031,-1.3973,-1.3927,-1.3862,-1.3848,-1.3854,-1.3882,-1.3917,-1.3902,-1.3727,-1.3846,-1.3844,-1.3843,-1.3842,-1.3841,-1.4477,-1.4473,-1.4374,-1.4354,-1.4313,-1.4282,-1.4253,-1.4159,-1.4132,-1.4056,-1.4054,-1.4009,-1.3968,-1.3911,-1.3835,-1.3788,-1.3757,-1.3809,-1.3749,-1.3777,-1.3762,-1.3764,-1.3765,-1.3823,-1.3825,-1.3827,-1.3829,0,-1.441,-1.4326,-1.4303,-1.4204,-1.4179,-1.418,-1.4095,-1.4083,-1.4021,-1.3996,-1.3985,-1.3888,-1.3849,-1.3764,-1.3701,-1.3658,-1.3663,-1.3631,-1.3687,-1.3677,-1.3718,-1.3717,-1.3856,-1.3871,-1.3697,-1.3699,-1.37,0,-1.4267,-1.4264,-1.414,-1.4131,-1.4126,-1.403,-1.4028,-1.3973,-1.3912,-1.3891,-1.3802,-1.3785,-1.3677,-1.3647,-1.3583,-1.3571,-1.3557,-1.3525,-1.3509,-1.3535,-1.354,-1.3521,-1.3515,-1.3466,-1.3465,-1.3465,-1.3464,0,-1.4173,-1.41,-1.4084,-1.4054,-1.3946,-1.3941,-1.3896,-1.3825,-1.3797,-1.3745,-1.3726,-1.3673,-1.3645,-1.3606,-1.3524,-1.3488,-1.3505,-1.3438,-1.3472,-1.3475,-1.3482,-1.3483,-1.3626,-1.3463,-1.3463,-1.3463,-1.3463,0,-1.4045,-1.3994,-1.3981,-1.389,-1.3875,-1.3863,-1.3805,-1.3774,-1.3706,-1.3664,-1.3622,-1.3552,-1.353,-1.3471,-1.3441,-1.3417,-1.3395,-1.336,-1.3361,-1.3356,-1.3292,-1.3389,-1.353,-1.3544,-1.335,-1.3349,-1.3348,0,-1.3962,-1.3925,-1.3842,-1.3831,-1.3803,-1.3704,-1.3689,-1.363,-1.3573,-1.3541,-1.3476,-1.344,-1.3376,-1.3352,-1.3349,-1.3282,-1.3313,-1.3274,-1.3233,-1.3233,-1.3259,-1.3387,-1.3431,-1.3508,-1.3335,-1.3336,-1.3337,0,-1.3886,-1.3752,-1.3756,-1.3718,-1.3622,-1.3596,-1.3579,-1.352,-1.3504,-1.3445,-1.343,-1.3373,-1.3324,-1.3285,-1.322,-1.3221,-1.3289,-1.3168,-1.3165,-1.3196,-1.3319,-1.3362,-1.3375,-1.3246,-1.3247,-1.3249,-1.3327,0,-1.3719,-1.3687,-1.3692,-1.3609,-1.3574,-1.3561,-1.3466,-1.3443,-1.3385,-1.3324,-1.3297,-1.3222,-1.3162,-1.3151,-1.3093,-1.3121,-1.3103,-1.305,-1.2986,-1.307,-1.3094,-1.3103,-1.296,-1.2957,-1.2955,-1.2953,0,0,-1.3662,-1.3614,-1.3521,-1.3499,-1.3464,-1.336,-1.3355,-1.3308,-1.3217,-1.3196,-1.316,-1.307,-1.301,-1.2988,-1.3006,-1.298,-1.2977,-1.295,-1.303,-1.3039,-1.3047,-1.3074,-1.3085,-1.295,-1.2949,-1.2948,-1.2947,0,-1.3582,-1.3522,-1.3516,-1.3464,-1.3383,-1.3317,-1.3316,-1.3217,-1.3177,-1.3148,-1.3062,-1.3034,-1.2962,-1.2912,-1.2877,-1.295,-1.2888,-1.2938,-1.3011,-1.3013,-1.3024,-1.3035,-1.3064,-1.3075,-1.2942,-1.2943,-1.2943,0,-1.3493,-1.342,-1.3406,-1.3319,-1.3265,-1.3235,-1.3146,-1.3117,-1.3095,-1.2981,-1.2953,-1.2898,-1.2821,-1.281,-1.2801,-1.2767,-1.2813,-1.2779,-1.2789,-1.2787,-1.2783,-1.2798,-1.2811,-1.2644,-1.2644,-1.2643,0,0,-1.3437,-1.3405,-1.3295,-1.3294,-1.3266,-1.3167,-1.3141,-1.3079,-1.3012,-1.2985,-1.2913,-1.2851,-1.2808,-1.2782,-1.2737,-1.2737,-1.2715,-1.2746,-1.276,-1.2772,-1.2777,-1.2776,-1.279,-1.2641,-1.2641,-1.2641,0,0,-1.3409,-1.3282,-1.3235,-1.3221,-1.3161,-1.3052,-1.3056,-1.2995,-1.2944,-1.2935,-1.2829,-1.2807,-1.2794,-1.2743,-1.2722,-1.2713,-1.2652,-1.2654,-1.2747,-1.2763,-1.2777,-1.279,-1.262,0,0,0,0,0,-1.3277,-1.3298,-1.3256,-1.324,-1.3128,-1.3076,-1.3061,-1.2974,-1.2933,-1.2939,-1.2869,-1.2802,-1.2711,-1.269,-1.2675,-1.27,-1.261,-1.2615,-1.262,-1.2739,-1.2757,-1.2773,0,0,0,0,0,0,-1.327,-1.325,-1.3255,-1.3149,-1.3123,-1.3074,-1.2987,-1.2963,-1.2931,-1.2918,-1.2817,-1.2798,-1.2723,-1.2692,-1.268,-1.2705,-1.2623,-1.2612,-1.2617,-1.2621,-1.2745,-1.276,-1.2773,0,0,0,0,0,-1.3264,-1.3247,-1.3091,-1.3148,-1.3126,-1.3015,-1.2985,-1.2965,-1.2938,-1.2829,-1.2808,-1.2875,-1.2726,-1.271,-1.2684,-1.2712,-1.2631,-1.2627,-1.2615,-1.2619,-1.2622,-1.2753,0,0,0,0,0,0,-1.3259,-1.3229,-1.3084,-1.3074,-1.3133,-1.3016,-1.2995,-1.2967,-1.2848,-1.2828,-1.2882,-1.2873,-1.2729,-1.2715,-1.2704,-1.272,-1.2637,-1.2633,-1.2631,-1.2618,-1.2621,-1.2623,0,0,0,0,0,0,-1.3237,-1.3221,-1.3079,-1.3065,-1.3052,-1.3018,-1.2999,-1.2963,-1.2848,-1.2907,-1.2897,-1.2879,-1.2746,-1.272,-1.271,-1.2657,-1.2642,-1.2638,-1.2635,-1.2634,-1.262,-1.2622,0,0,0,0,0,0,-1.3229,-1.3215,-1.3067,-1.3057,-1.3046,-1.2926,-1.2984,-1.2874,-1.2837,-1.2914,-1.2831,-1.2829,-1.2752,-1.2741,-1.2715,-1.2667,-1.266,-1.2642,-1.2639,-1.2637,-1.2636,0,0,0,0,0,0,0,-1.3222,-1.3334,-1.3144,-1.3051,-1.3041,-1.298,-1.2978,-1.2975,-1.2837,-1.2834,-1.2832,-1.283,-1.2665,-1.2661,-1.2656,-1.2675,0,0,-1.2643,-1.2641,0,0,0,0,0,0,0,0,-1.3338,-1.3335,-1.3144,-1.3142,-1.314,-1.298,-1.2978,-1.2975,-1.2836,-1.2834,-1.2833,-1.2831,-1.2664,-1.2661,-1.2657,0,0,0,0,0,0,0,0,0,0,0,0,0,0,0,-1.3144,-1.3142,0,-1.298,-1.2978,-1.2976,-1.2836,-1.2834,-1.2833,-1.2831,-1.2663,-1.266,-1.2657,0,0,0,0,0,0,0,0,0,0,0,0,0,0,0,0,0,0,0,0,0,0,0,0,0,0,0,0,0,0,0,0,0,0,0,0,0,0,0,0,0,0,0,0,0,0,0,0,0,0,0,0,0,0,0,0,0,0,0,0,0,0,0,0,0,0,0,0,0]}],[{"header":{"parameterUnit":"kt","parameterCategory":2,"dx":1,"dy":1,"la1":30.253999710083008,"la2":30.299108505249023,"lo1":-89.0895004272461,"lo2":-89.04439544677734,"nx":28,"ny":28,"refTime":"2022-10-25T21:00:00:Z","depth":0,"parameterNumber":2,"parameterNumberName":"V-component_of_WINDS"},"data":[1.5624,1.5585,1.5574,1.5524,1.5506,1.5468,1.5451,1.5428,1.5407,1.5359,1.533,1.5314,1.5287,1.5247,1.5213,1.5206,1.5191,1.5183,1.5176,1.5222,1.5227,1.5232,1.5241,1.5181,1.5181,1.5128,1.5128,1.5128,1.5653,1.5635,1.5607,1.5572,1.5546,1.5547,1.5519,1.5497,1.5463,1.5437,1.5408,1.5365,1.5329,1.5304,1.5267,1.5245,1.5242,1.5236,1.5235,1.523,1.528,1.5289,1.5238,1.5238,1.5238,1.5238,1.5238,1.5238,1.5703,1.568,1.5654,1.5623,1.5603,1.5579,1.5555,1.5538,1.5509,1.5472,1.5466,1.5427,1.5397,1.5349,1.5329,1.5297,1.5302,1.5291,1.5287,1.5283,1.528,1.535,1.5291,1.5291,1.5291,1.5291,1.5291,0,1.5735,1.5729,1.5702,1.5671,1.5648,1.5623,1.5599,1.5584,1.5566,1.5543,1.5508,1.5485,1.544,1.5404,1.5368,1.535,1.5346,1.5346,1.5337,1.5338,1.5342,1.5335,1.5412,1.5347,1.5348,1.5348,1.5348,1.5348,1.5782,1.5759,1.5728,1.571,1.5695,1.5666,1.5647,1.5634,1.5613,1.558,1.556,1.5525,1.5497,1.5441,1.5419,1.5385,1.5382,1.5358,1.5377,1.5378,1.5377,1.5377,1.5372,1.5353,1.5353,1.5352,1.5352,0,1.5808,1.5794,1.5755,1.5727,1.5719,1.5694,1.5669,1.5646,1.5633,1.5598,1.559,1.5568,1.5533,1.5516,1.5473,1.5465,1.5417,1.5417,1.5425,1.5423,1.5397,1.5398,1.5322,1.5309,1.5375,1.5375,1.5374,0,1.5841,1.5811,1.5791,1.5769,1.5734,1.5723,1.5688,1.5674,1.5651,1.5624,1.5619,1.5594,1.5577,1.5548,1.5536,1.5495,1.5488,1.5477,1.5474,1.5476,1.5477,1.5462,1.5463,1.5472,1.5473,1.5473,1.5474,0,1.5881,1.5837,1.5802,1.579,1.5758,1.5741,1.5726,1.5702,1.5683,1.5656,1.5643,1.5613,1.5595,1.557,1.5555,1.5568,1.5506,1.5521,1.5495,1.5495,1.548,1.548,1.542,1.5474,1.5474,1.5474,1.5474,0,1.5905,1.5881,1.5834,1.5806,1.5795,1.5772,1.5742,1.5719,1.5693,1.5685,1.5664,1.5658,1.5624,1.5639,1.5591,1.5611,1.5593,1.5582,1.558,1.5573,1.5589,1.5553,1.5501,1.5492,1.5569,1.557,1.5571,0,1.5953,1.5903,1.5893,1.5849,1.5823,1.5819,1.5794,1.5772,1.5759,1.5734,1.5719,1.569,1.5699,1.5687,1.5666,1.5648,1.5621,1.5652,1.5609,1.5608,1.5613,1.5565,1.556,1.5515,1.5581,1.558,1.5579,0,1.5989,1.5953,1.5946,1.593,1.5903,1.5882,1.5853,1.5823,1.5806,1.5784,1.5757,1.5719,1.5722,1.5704,1.5696,1.5675,1.5639,1.5681,1.568,1.5671,1.5586,1.558,1.5573,1.5638,1.5637,1.5636,1.5587,0,1.6022,1.5996,1.5978,1.5948,1.593,1.5902,1.5888,1.587,1.5865,1.5853,1.5815,1.5794,1.5762,1.5752,1.5747,1.5705,1.5708,1.5713,1.5725,1.5695,1.5678,1.5671,1.5751,1.5751,1.5751,1.5751,0,0,1.6069,1.6033,1.6025,1.5999,1.5982,1.598,1.5952,1.5936,1.5904,1.5892,1.5899,1.5841,1.5824,1.5779,1.5768,1.5757,1.5746,1.5758,1.571,1.5706,1.5701,1.5684,1.5677,1.5752,1.5752,1.5752,1.5752,0,1.6078,1.6065,1.6039,1.6022,1.5998,1.5987,1.5981,1.5956,1.5947,1.5912,1.5909,1.5885,1.584,1.582,1.5805,1.5764,1.5761,1.5756,1.5738,1.5713,1.5708,1.5704,1.5686,1.568,1.5753,1.5753,1.5753,0,1.6109,1.6092,1.6079,1.6046,1.603,1.6005,1.6014,1.5988,1.5968,1.5966,1.5931,1.5917,1.5891,1.5853,1.5835,1.584,1.5776,1.5795,1.5793,1.579,1.5765,1.5759,1.5754,1.582,1.5821,1.5821,0,0,1.6118,1.6096,1.6074,1.6047,1.6037,1.6021,1.6007,1.6001,1.5979,1.597,1.5953,1.593,1.5904,1.5886,1.5861,1.5822,1.5813,1.5804,1.5801,1.5798,1.5794,1.5768,1.5762,1.5822,1.5822,1.5822,0,0,1.6122,1.6096,1.6096,1.6063,1.6043,1.6019,1.6001,1.6,1.5976,1.5978,1.5965,1.5959,1.5923,1.591,1.5926,1.5864,1.5876,1.5872,1.5874,1.587,1.5867,1.5869,1.5931,0,0,0,0,0,1.6125,1.61,1.61,1.6092,1.6051,1.6019,1.6013,1.6004,1.6012,1.5998,1.5983,1.5983,1.5915,1.593,1.5922,1.5902,1.5836,1.5834,1.5831,1.5825,1.582,1.5817,0,0,0,0,0,0,1.6122,1.6113,1.61,1.6076,1.6066,1.602,1.6031,1.6028,1.6013,1.6014,1.5986,1.5982,1.5972,1.5934,1.5926,1.5908,1.5934,1.5835,1.5833,1.5831,1.5823,1.582,1.5817,0,0,0,0,0,1.6119,1.6112,1.6048,1.6076,1.6067,1.6048,1.6032,1.603,1.6018,1.5995,1.5991,1.6012,1.5972,1.5965,1.5929,1.5912,1.5939,1.5936,1.5834,1.5832,1.5831,1.5821,0,0,0,0,0,0,1.6117,1.6108,1.6046,1.6043,1.6085,1.6051,1.6045,1.6031,1.6,1.5996,1.602,1.6021,1.5971,1.5966,1.596,1.5913,1.5943,1.594,1.5939,1.5833,1.5831,1.583,0,0,0,0,0,0,1.6112,1.6106,1.6045,1.6057,1.6056,1.6053,1.6048,1.6017,1.5999,1.6027,1.6027,1.6021,1.5979,1.5967,1.5962,1.5914,1.5946,1.5944,1.5942,1.5941,1.5832,1.5831,0,0,0,0,0,0,1.6109,1.6104,1.6058,1.6057,1.6055,1.6021,1.6025,1.5982,1.6012,1.6028,1.6014,1.6015,1.5979,1.5975,1.5964,1.5917,1.5915,1.5946,1.5944,1.5943,1.5942,0,0,0,0,0,0,0,1.6107,1.6146,1.6064,1.6056,1.6055,1.6016,1.6015,1.6014,1.6012,1.6013,1.6014,1.6015,1.5961,1.5958,1.5955,1.592,0,0,1.5946,1.5945,0,0,0,0,0,0,0,0,1.6148,1.6147,1.6064,1.6063,1.6063,1.6016,1.6015,1.6015,1.6012,1.6013,1.6014,1.6014,1.596,1.5958,1.5956,0,0,0,0,0,0,0,0,0,0,0,0,0,0,0,1.6064,1.6064,0,1.6016,1.6015,1.6015,1.6012,1.6013,1.6013,1.6014,1.596,1.5958,1.5956,0,0,0,0,0,0,0,0,0,0,0,0,0,0,0,0,0,0,0,0,0,0,0,0,0,0,0,0,0,0,0,0,0,0,0,0,0,0,0,0,0,0,0,0,0,0,0,0,0,0,0,0,0,0,0,0,0,0,0,0,0,0,0,0,0,0,0,0,0]}]]]